O'Neill, NE

3:37 AM CDT on October 01, 2016 (GMT -0500)
The O'Neill Municipal-Baker

Weather History for KONL - June, 2014

Change the Weather History Date:

Saturday, June 7, 2014

  Actual Average Record
Temperature  
Mean Temperature 58 °F -  
Max Temperature 65 °F 80 °F 96 °F (1987)
Min Temperature 51 °F 53 °F 41 °F (1983)
Degree Days  
Heating Degree Days 8    
Growing Degree Days 8 (Base 50)    
Moisture  
Dew Point 48 °F    
Average Humidity 69    
Maximum Humidity 82    
Minimum Humidity 53    
Precipitation  
Precipitation 0.00 in - - ()
Sea Level Pressure  
Sea Level Pressure 30.08 in    
Wind  
Wind Speed 12 mph (North)    
Max Wind Speed 18 mph    
Max Gust Speed 24 mph    
Visibility 10 miles    
Events Rain    
Averages and records for this station are not official NWS values.
T = Trace of Precipitation, MM = Missing Value Source: NWS Daily Summary

Daily Weather History Graph

Daily Weather History Graph

Search for Another Location

Airport or City:

Trip Planner

Search our weather history database for the weather conditions in past years. The results will help you decide how hot, cold, wet, or windy it might be!

Date:

Astronomy

Jun. 07, 2014 Rise Set
Actual Time 5:57 AM CDT 9:09 PM CDT
Civil Twilight 5:23 AM CDT 9:44 PM CDT
Nautical Twilight 4:39 AM CDT 10:28 PM CDT
Astronomical Twilight 3:45 AM CDT 11:22 PM CDT
Moon 3:22 PM CDT (6/7) 2:27 AM CDT (6/7)
Length of Visible Light 16h 20m
Length of Day
15h 11m
Waxing Gibbous, 68% of the Moon is Illuminated
Jun 7
Waxing Gibbous
Jun 12
Full
Jun 19
Last Quarter
Jun 27
New
Jul 5
First Quarter

Hourly Weather History & Observations

Time (CDT) Temp. Dew Point Humidity Pressure Visibility Wind Dir Wind Speed Gust Speed Precip Events Conditions
12:15 AM 58.1 °F 49.3 °F 72% 29.99 in 10.0 mi NNW 15.0 mph 20.7 mph N/A   Overcast
12:35 AM 56.5 °F 49.1 °F 76% 30.03 in 10.0 mi North 8.1 mph - N/A   Overcast
12:55 AM 55.8 °F 49.1 °F 78% 30.01 in 10.0 mi North 12.7 mph - N/A   Overcast
1:15 AM 55.6 °F 48.9 °F 78% 30.00 in 10.0 mi NNW 16.1 mph 20.7 mph N/A   Overcast
1:35 AM 55.4 °F 48.4 °F 77% 30.01 in 10.0 mi North 15.0 mph 19.6 mph N/A   Overcast
1:55 AM 55.6 °F 48.2 °F 76% 30.02 in 10.0 mi North 15.0 mph 18.4 mph N/A   Overcast
2:15 AM 55.9 °F 47.7 °F 74% 30.01 in 10.0 mi North 11.5 mph - N/A   Overcast
2:35 AM 55.4 °F 47.3 °F 74% 30.01 in 10.0 mi North 8.1 mph 17.3 mph N/A   Overcast
2:55 AM 54.9 °F 47.7 °F 77% 30.04 in 10.0 mi North 8.1 mph - N/A   Overcast
3:15 AM 55.0 °F 47.3 °F 75% 30.04 in 10.0 mi North 8.1 mph - N/A   Overcast
3:35 AM 54.5 °F 46.6 °F 75% 30.03 in 10.0 mi NNW 9.2 mph - N/A   Mostly Cloudy
3:55 AM 54.1 °F 47.5 °F 78% 30.03 in 10.0 mi NW 15.0 mph - N/A   Overcast
4:15 AM 53.6 °F 47.3 °F 79% 30.03 in 10.0 mi NNW 18.4 mph 23.0 mph N/A   Overcast
4:35 AM 52.5 °F 46.4 °F 80% 30.04 in 10.0 mi NNW 17.3 mph - N/A   Mostly Cloudy
4:55 AM 51.8 °F 45.9 °F 80% 30.04 in 10.0 mi NNW 13.8 mph 19.6 mph N/A   Clear
5:15 AM 51.6 °F 46.0 °F 81% 30.05 in 10.0 mi NNW 11.5 mph 19.6 mph N/A   Scattered Clouds
5:35 AM 52.0 °F 46.6 °F 82% 30.06 in 10.0 mi NNW 15.0 mph - N/A   Mostly Cloudy
5:55 AM 52.2 °F 46.6 °F 81% 30.08 in 10.0 mi North 11.5 mph - N/A   Overcast
6:15 AM 52.5 °F 45.9 °F 78% 30.08 in 10.0 mi North 17.3 mph - N/A   Overcast
6:35 AM 52.5 °F 45.9 °F 78% 30.09 in 10.0 mi North 16.1 mph - N/A   Overcast
6:55 AM 52.0 °F 46.4 °F 81% 30.08 in 10.0 mi NNW 13.8 mph - N/A Rain Light Rain
7:15 AM 51.8 °F 46.4 °F 82% 30.07 in 10.0 mi NNW 15.0 mph - N/A   Overcast
7:35 AM 51.8 °F 46.0 °F 81% 30.07 in 10.0 mi NNW 16.1 mph 21.9 mph N/A   Overcast
7:55 AM 52.2 °F 46.4 °F 81% 30.07 in 10.0 mi NNW 18.4 mph - N/A   Overcast
8:15 AM 52.5 °F 46.4 °F 80% 30.07 in 10.0 mi NNW 18.4 mph 24.2 mph N/A   Overcast
8:35 AM 52.0 °F 45.9 °F 80% 30.08 in 10.0 mi NNW 15.0 mph 24.2 mph N/A   Overcast
8:55 AM 52.2 °F 45.7 °F 79% 30.08 in 10.0 mi North 16.1 mph 21.9 mph N/A   Overcast
9:15 AM 52.0 °F 45.5 °F 79% 30.08 in 10.0 mi North 15.0 mph 20.7 mph N/A   Overcast
9:35 AM 52.5 °F 45.7 °F 78% 30.08 in 10.0 mi NNW 15.0 mph - N/A   Overcast
9:55 AM 52.2 °F 45.1 °F 77% 30.09 in 10.0 mi NNW 18.4 mph - N/A   Overcast
10:15 AM 53.8 °F 45.1 °F 73% 30.09 in 10.0 mi NNW 18.4 mph 24.2 mph N/A   Overcast
10:35 AM 55.6 °F 45.9 °F 70% 30.08 in 10.0 mi North 18.4 mph 24.2 mph N/A   Overcast
10:55 AM 57.6 °F 46.4 °F 66% 30.08 in 10.0 mi North 16.1 mph 20.7 mph N/A   Mostly Cloudy
11:15 AM 59.4 °F 46.4 °F 62% 30.08 in 10.0 mi North 15.0 mph 21.9 mph N/A   Mostly Cloudy
11:35 AM 59.9 °F 46.6 °F 61% 30.08 in 10.0 mi North 13.8 mph 20.7 mph N/A   Mostly Cloudy
12:15 PM 61.5 °F 45.7 °F 56% 30.09 in 10.0 mi North 16.1 mph 23.0 mph N/A   Scattered Clouds
12:35 PM 62.8 °F 46.6 °F 55% 30.09 in 10.0 mi North 16.1 mph 24.2 mph N/A   Scattered Clouds
12:55 PM 63.9 °F 46.6 °F 53% 30.09 in 10.0 mi North 15.0 mph 21.9 mph N/A   Scattered Clouds
1:15 PM 63.9 °F 47.7 °F 56% 30.09 in 10.0 mi North 17.3 mph 23.0 mph N/A   Scattered Clouds
1:35 PM 64.8 °F 47.8 °F 54% 30.09 in 10.0 mi NNE 17.3 mph 20.7 mph N/A   Mostly Cloudy
1:55 PM 64.2 °F 48.2 °F 56% 30.09 in 10.0 mi North 15.0 mph 23.0 mph N/A   Overcast
2:15 PM 62.6 °F 47.7 °F 58% 30.10 in 10.0 mi North 13.8 mph 23.0 mph N/A   Overcast
2:35 PM 61.7 °F 47.8 °F 60% 30.10 in 10.0 mi North 15.0 mph - N/A   Overcast
2:55 PM 61.7 °F 48.0 °F 61% 30.10 in 10.0 mi North 11.5 mph 18.4 mph N/A   Overcast
3:15 PM 63.9 °F 49.3 °F 59% 30.09 in 10.0 mi North 11.5 mph 19.6 mph N/A   Overcast
3:35 PM 64.0 °F 48.9 °F 58% 30.09 in 10.0 mi NNE 12.7 mph 18.4 mph N/A   Overcast
3:55 PM 64.2 °F 48.7 °F 57% 30.09 in 10.0 mi North 10.4 mph 17.3 mph N/A   Overcast
4:15 PM 63.9 °F 49.3 °F 59% 30.09 in 10.0 mi NNE 8.1 mph - N/A   Overcast
4:35 PM 64.4 °F 49.3 °F 58% 30.09 in 10.0 mi NNE 10.4 mph - N/A   Overcast
4:55 PM 64.0 °F 48.4 °F 57% 30.09 in 10.0 mi NNE 11.5 mph 16.1 mph N/A   Overcast
5:15 PM 63.9 °F 49.3 °F 59% 30.09 in 10.0 mi NNE 10.4 mph - N/A   Overcast
5:35 PM 64.4 °F 50.0 °F 59% 30.09 in 10.0 mi NNE 10.4 mph - N/A   Overcast
5:55 PM 63.7 °F 49.1 °F 59% 30.09 in 10.0 mi North 9.2 mph - N/A   Overcast
6:15 PM 63.5 °F 48.6 °F 58% 30.09 in 10.0 mi NNE 9.2 mph - N/A   Overcast
6:35 PM 63.5 °F 48.7 °F 59% 30.09 in 10.0 mi NNE 9.2 mph - N/A   Overcast
6:55 PM 63.5 °F 48.0 °F 57% 30.09 in 10.0 mi North 10.4 mph - N/A   Overcast
7:15 PM 63.5 °F 47.8 °F 57% 30.10 in 10.0 mi NNE 10.4 mph - N/A   Overcast
7:35 PM 63.3 °F 48.7 °F 59% 30.10 in 10.0 mi North 10.4 mph - N/A   Overcast
7:55 PM 63.1 °F 47.7 °F 57% 30.10 in 10.0 mi North 5.8 mph - N/A   Scattered Clouds
8:15 PM 62.4 °F 48.4 °F 60% 30.10 in 10.0 mi Calm Calm - N/A   Clear
8:35 PM 61.0 °F 49.1 °F 65% 30.10 in 10.0 mi NNE 3.5 mph - N/A   Clear
8:55 PM 59.9 °F 48.4 °F 66% 30.10 in 10.0 mi North 4.6 mph - N/A   Clear
9:15 PM 59.5 °F 47.7 °F 65% 30.10 in 10.0 mi North 3.5 mph - N/A   Clear
9:35 PM 58.5 °F 47.7 °F 67% 30.12 in 10.0 mi North 3.5 mph - N/A   Clear
9:55 PM 58.1 °F 47.8 °F 69% 30.12 in 10.0 mi North 3.5 mph - N/A   Clear
10:15 PM 57.4 °F 48.0 °F 71% 30.12 in 10.0 mi NNE 3.5 mph - N/A   Clear
10:35 PM 57.4 °F 47.8 °F 70% 30.13 in 10.0 mi NNE 3.5 mph - N/A   Scattered Clouds
10:55 PM 56.5 °F 48.2 °F 74% 30.14 in 10.0 mi NNE 3.5 mph - N/A   Overcast
11:15 PM 57.0 °F 48.2 °F 72% 30.14 in 10.0 mi Calm Calm - N/A   Overcast
11:35 PM 57.4 °F 48.4 °F 72% 30.14 in 10.0 mi NE 3.5 mph - N/A   Overcast
11:55 PM 57.2 °F 48.4 °F 72% 30.14 in 10.0 mi Calm Calm - N/A   Overcast